Hourly Data Report for October 10, 2013

All times are specified in Local Standard Time (LST). Add 1 hour to adjust for Daylight Saving Time where and when it is observed.

PENTICTON A
BRITISH COLUMBIA

49°27'45.000" N
119°36'08.000" W
344.40 m
1126146
71889
YYF

Download Data

Hourly Data (October 2013)
Hourly Data Report for October 10, 2013
Temp Definition
°C
Dew Point Temp Definition
°C
Rel Hum Definition
%
Wind Dir Definition
10's deg

Wind Spd Definition
km/h
Visibility Definition
km
Stn Press Definition
kPa
Hmdx Definition


Wind Chill Definition


Weather Definition


TIME
00:00 Legend Double Dagger 10.5 4.0 64 30 8 24.1 97.08     LegendNANA
01:00 Legend Double Dagger 8.9 4.5 74 36 7 24.1 97.10     Cloudy
02:00 Legend Double Dagger 8.9 4.4 73 34 6 24.1 97.06     LegendNANA
03:00 Legend Double Dagger 7.9 4.9 81 3 6 24.1 97.03     LegendNANA
04:00 Legend Double Dagger 8.4 4.4 76 5 1 24.1 97.01     Cloudy
05:00 Legend Double Dagger 7.7 4.7 81 36 5 24.1 97.05     LegendNANA
06:00 Legend Double Dagger 7.2 4.2 81 5 3 24.1 97.05     LegendNANA
07:00 Legend Double Dagger 7.2 4.7 84 1 1 24.1 97.07     Cloudy
08:00 Legend Double Dagger 8.3 5.4 82 2 4 24.1 97.09     LegendNANA
09:00 Legend Double Dagger 10.1 4.7 69 35 9 24.1 97.14     LegendNANA
10:00 Legend Double Dagger 10.6 4.1 64 33 7 24.1 97.18     Mostly Cloudy
11:00 Legend Double Dagger 11.9 4.4 60 1 8 24.1 97.22     LegendNANA
12:00 Legend Double Dagger 12.5 4.5 58 35 13 24.1 97.28     LegendNANA
13:00 Legend Double Dagger 12.6 3.9 55 36 14 24.1 97.32     Rain Showers
14:00 Legend Double Dagger 13.4 3.3 50 36 13 24.1 97.33     LegendNANA
15:00 Legend Double Dagger 13.9 1.3 42 35 11 24.1 97.32     LegendNANA
16:00 Legend Double Dagger 10.7 1.8 54 31 7 24.1 97.35     Mainly Clear
17:00 Legend Double Dagger 7.6 1.7 66 8 3 24.1 97.34     LegendNANA
18:00 Legend Double Dagger 6.2 0.8 68 1 3 24.1 97.41     LegendNANA
19:00 Legend Double Dagger 5.2 0.8 73 21 3 24.1 97.48     Mainly Clear
20:00 Legend Double Dagger 3.4 0.1 79 4 1 24.1 97.54     LegendNANA
21:00 Legend Double Dagger 2.9 -0.7 77 1 4 24.1 97.61     LegendNANA
22:00 Legend Double Dagger 3.3 1.2 86   0 24.1 97.64     Clear
23:00 Legend Double Dagger 1.3 -1.4 82 2 3 24.1 97.68     LegendNANA

Notes on Data Quality.

Legend

  • E = Estimated
  • M = Missing
  • NA = Not Available
  • ‡ = Partner data that is not subject to review by the National Climate Archives
Date modified: